This is the latest recevied weather packets stored in our database for station/object KQ4UPF. If no packets are shown the sender has not sent any weather packets the latest 10 day(s).
| Time | Temp. | Humidity | Pressure | Rain* | Wind** | Luminosity | Snow |
|---|---|---|---|---|---|---|---|
| 1777370923 | 18.33° C | 93% | 1019.9 hPa | 1.27 mm | - | 0 W/m² | - |
| 1777370618 | 18.33° C | 92% | 1018.4 hPa | 0 mm | - | 0 W/m² | - |
| 1777370315 | 18.33° C | 92% | 1018.1 hPa | 0 mm | - | 0 W/m² | - |
| 1777370011 | 18.33° C | 92% | 1018.1 hPa | 0 mm | - | 0 W/m² | - |
| 1777369708 | 18.89° C | 90% | 1017 hPa | 1.78 mm | - | 0 W/m² | - |
| 1777369408 | 18.89° C | 90% | 1016.6 hPa | 1.78 mm | - | 0 W/m² | - |
| 1777369104 | 18.89° C | 88% | 1016.2 hPa | 0 mm | - | 0 W/m² | - |
| 1777368802 | 18.89° C | 88% | 1016.3 hPa | 0 mm | - | 0 W/m² | - |
| 1777368496 | 18.89° C | 91% | 1016.3 hPa | 0 mm | - | 0 W/m² | - |
| 1777368194 | 18.89° C | 92% | 1016.7 hPa | 1.78 mm | - | 0 W/m² | - |
| 1777367891 | 19.44° C | 90% | 1016.8 hPa | 6.1 mm | - | 0 W/m² | - |
| 1777367587 | 19.44° C | 87% | 1017.3 hPa | 3.05 mm | - | 0 W/m² | - |
| 1777367283 | 19.44° C | 86% | 1016.9 hPa | 0 mm | - | 0 W/m² | - |
| 1777366978 | 19.44° C | 86% | 1016.5 hPa | 0 mm | - | 0 W/m² | - |
| 1777366678 | 19.44° C | 87% | 1016.6 hPa | 0 mm | - | 0 W/m² | - |
| 1777366373 | 18.89° C | 89% | 1016.5 hPa | 0 mm | - | 0 W/m² | - |
| 1777366069 | 18.89° C | 91% | 1016.7 hPa | 0 mm | - | 0 W/m² | - |
| 1777365766 | 18.89° C | 91% | 1016.8 hPa | 0 mm | - | 0 W/m² | - |
| 1777365461 | 18.89° C | 91% | 1016.6 hPa | 0 mm | - | 0 W/m² | - |
| 1777365159 | 19.44° C | 89% | 1016.8 hPa | 0 mm | - | 0 W/m² | - |
| 1777364859 | 19.44° C | 87% | 1017 hPa | 1.78 mm | - | 0 W/m² | - |
| 1777364554 | 20° C | 84% | 1017.2 hPa | 1.78 mm | - | 0 W/m² | - |
| 1777364251 | 20.56° C | 82% | 1017 hPa | 0 mm | - | 0 W/m² | - |
| 1777363947 | 21.11° C | 78% | 1017.4 hPa | 0 mm | - | 0 W/m² | - |
| 1777363645 | 21.11° C | 74% | 1017.3 hPa | 0 mm | - | 0 W/m² | - |
* Rain latest hour (hover to see other rain measurements)
** Current wind speed in m/s (hover to see current wind gust speed)